Theta_e
345 346 349 347 346 345 345 346 347 344 345 345 345 344 344 346 345 345 347 345 345 344 343 342 341 339 337 334 333 335 335 333
343 346 346 349 351 344 344 344 345 341 342 341 342 342 342 343 343 344 345 344 344 343 342 340 339 337 334 333 333 334 333 331
338 339 341 346 348 349 346 346 345 341 341 341 340 341 337 338 341 342 343 342 342 341 340 338 337 335 334 333 333 333 332 331
318 334 339 340 342 347 350 349 350 349 347 346 344 340 338 336 339 340 340 341 340 339 338 336 335 336 334 331 333 332 332 331
307 308 317 338 341 343 343 347 348 348 347 346 343 342 338 336 339 340 344 342 342 340 337 336 337 335 334 334 332 332 331 330
303 306 311 327 340 341 341 343 346 345 346 346 343 338 337 335 338 338 339 341 339 338 337 337 336 335 334 332 332 331 330 330
303 307 312 315 334 341 341 341 343 344 344 345 344 339 335 335 336 337 336 338 338 337 336 336 333 334 333 331 330 330 330 329
304 308 311 313 317 339 340 340 342 342 342 343 341 339 336 336 335 334 334 336 336 337 335 333 331 331 331 331 330 329 329 328
303 307 310 311 313 334 339 339 340 340 340 342 339 338 335 333 333 334 335 336 336 335 333 332 329 329 331 330 329 329 328 327
302 305 308 309 311 315 337 338 339 338 339 341 338 338 336 333 331 332 334 333 333 333 329 326 327 326 329 329 328 327 327 326
300 303 305 307 310 315 329 338 338 338 338 339 339 337 336 335 330 332 334 332 332 333 329 327 323 325 328 328 326 325 325 324
300 301 303 306 308 310 317 336 337 338 337 338 338 338 337 335 332 329 331 330 331 332 329 327 325 324 325 325 323 323 325 324
298 299 301 304 303 304 309 311 333 335 336 337 338 337 336 334 333 329 329 326 327 330 329 325 323 325 321 320 320 321 323 324
297 298 300 302 302 302 307 310 317 336 336 336 338 336 335 333 330 329 328 326 325 326 328 325 323 323 323 318 313 316 320 321
295 297 299 300 301 303 305 311 323 332 333 334 336 335 334 332 332 329 328 327 325 325 327 326 320 322 323 320 314 312 317 321
295 297 298 299 300 299 300 303 306 316 331 334 334 335 332 332 331 329 328 328 327 327 327 326 324 320 323 325 327 324 318 313
293 295 297 299 299 298 299 301 304 308 319 332 333 333 333 331 330 330 329 329 331 326 327 326 324 323 323 323 323 323 323 322
292 293 295 296 297 298 298 299 302 304 311 324 330 333 331 330 329 328 330 331 331 329 327 328 327 326 329 329 326 322 320 321
291 291 292 294 296 297 297 299 301 302 307 313 321 330 329 329 329 325 328 332 330 330 329 329 330 330 329 326 328 328 326 319
290 290 291 293 294 296 297 298 300 302 303 307 312 324 333 332 328 328 326 329 332 332 330 331 331 332 331 329 327 326 326 323
Wind_Speed
3 4 5 3 3 4 5 8 9 9 11 13 16 19 19 15 11 15 16 19 20 20 19 19 19 18 18 17 15 12 12 11
6 4 3 5 6 4 5 6 7 6 8 8 15 16 16 11 10 15 19 19 20 20 20 19 18 17 17 17 15 12 12 12
8 7 5 5 5 5 7 7 7 6 6 13 18 11 12 13 8 16 19 18 19 19 19 18 18 17 16 17 13 8 10 8
15 12 7 8 6 7 7 7 8 8 8 15 10 11 10 12 8 13 18 18 18 18 19 19 17 12 10 12 6 9 7 8
17 13 16 7 8 5 4 5 5 4 8 12 11 9 8 8 6 7 11 16 11 14 14 12 13 11 10 7 10 9 6 7
18 17 12 14 6 4 5 5 6 6 5 12 9 7 7 8 6 7 10 10 12 10 9 11 12 12 12 11 10 8 6 6
18 17 14 10 12 5 4 5 6 8 8 10 9 8 9 8 5 6 8 8 10 9 11 11 9 11 11 11 10 9 10 7
20 19 15 14 14 8 5 4 6 7 7 8 9 8 8 9 9 9 7 7 8 9 10 9 9 9 11 11 10 9 9 10
20 19 18 15 13 11 6 5 6 6 6 11 9 10 10 10 9 9 9 8 10 7 8 9 9 7 12 10 9 10 9 10
20 18 19 17 14 11 6 6 6 6 7 7 9 10 11 10 9 10 8 8 8 7 8 8 8 7 10 9 8 8 10 10
20 20 20 20 15 11 11 9 8 7 7 9 11 10 12 10 10 11 11 10 9 9 8 11 8 7 10 9 8 8 10 9
20 18 20 19 11 11 10 6 8 8 7 8 12 10 11 7 11 12 12 11 10 9 11 10 10 9 8 8 7 6 7 8
22 21 22 16 12 12 7 6 6 6 8 12 11 12 12 13 8 11 11 11 12 11 9 13 8 10 8 6 5 5 6 7
21 20 21 15 11 10 6 8 10 8 6 9 11 13 14 11 11 11 15 11 14 15 7 10 6 11 7 6 3 3 5 7
20 20 20 16 17 11 10 9 6 5 7 9 11 10 10 14 14 12 13 13 12 15 13 18 12 9 11 6 5 4 6 7
20 20 19 17 17 14 15 8 9 6 8 9 7 11 14 15 14 14 14 11 13 10 16 8 13 13 10 2 4 8 6 5
19 21 19 19 16 14 11 12 8 10 12 8 11 11 15 15 14 15 15 11 14 15 14 10 9 9 9 5 4 5 4 3
20 22 20 20 19 15 15 15 13 11 11 7 7 8 7 12 15 17 14 13 13 13 15 12 10 10 10 11 8 8 5 4
19 22 21 19 18 18 15 14 13 13 13 8 10 7 7 9 13 13 11 13 14 14 16 16 17 14 15 10 9 9 5 3
22 22 21 19 18 19 14 15 9 9 10 10 8 10 11 12 12 13 17 16 14 15 12 12 14 14 17 12 9 8 6 5
Wind_Direction
139 175 179 150 181 177 178 176 185 189 183 175 169 141 146 157 164 153 132 133 131 136 133 128 125 121 117 114 116 126 123 116
360 336 266 227 217 210 187 196 197 211 190 161 136 137 137 144 179 161 140 140 133 139 135 132 128 123 122 121 119 131 123 125
347 322 292 249 232 238 197 207 214 212 163 132 136 146 150 169 206 180 144 142 137 141 134 131 124 122 124 126 144 130 130 126
355 339 312 289 249 235 227 219 223 221 200 157 145 155 164 166 220 183 145 139 141 143 135 132 143 141 135 141 135 135 135 130
345 345 334 287 260 248 233 218 216 214 183 158 158 161 162 165 194 174 153 149 153 148 139 156 153 151 156 152 141 148 135 132
343 339 332 322 272 239 235 234 206 197 180 164 160 161 162 180 164 164 162 162 157 156 167 157 159 155 151 148 151 144 140 133
346 338 341 333 294 246 210 222 219 195 179 182 166 162 157 179 158 158 164 158 159 160 165 159 154 155 150 152 152 145 142 138
345 343 344 327 334 254 218 202 207 202 179 180 177 162 160 165 160 163 166 161 162 164 165 156 151 157 152 158 153 148 147 143
350 346 347 341 323 291 219 209 193 195 192 179 179 171 169 163 156 161 165 164 157 150 141 145 145 162 157 159 156 153 149 147
347 349 348 343 334 326 236 206 203 195 188 190 180 180 170 175 163 175 158 151 146 149 153 147 149 161 160 159 157 159 151 150
352 352 351 347 336 326 293 204 208 198 198 187 192 187 180 185 176 175 171 160 167 164 170 153 156 162 167 157 158 161 159 157
356 355 353 350 341 338 327 220 216 203 200 190 195 196 190 188 179 174 173 175 166 172 172 156 165 153 155 150 150 160 167 165
357 356 355 352 355 346 338 328 260 200 207 199 188 198 189 196 182 172 183 189 186 191 167 153 161 150 131 119 132 152 185 176
354 355 355 353 347 332 311 300 289 212 192 206 198 204 190 182 170 171 181 193 190 197 188 167 157 168 155 126 136 147 214 198
353 354 353 353 346 337 328 309 313 204 190 204 203 188 185 178 169 168 182 180 187 194 196 186 160 175 171 135 157 174 154 198
355 355 353 353 350 345 339 330 328 325 255 205 194 190 189 179 178 171 172 191 194 191 203 191 154 168 170 214 144 143 185 167
356 357 355 353 352 347 338 326 323 318 299 190 195 195 191 186 186 178 182 188 199 195 201 163 167 163 178 157 154 159 147 160
358 359 356 353 350 348 340 331 335 327 322 297 199 202 190 200 188 184 184 190 189 191 198 198 181 186 191 193 177 186 179 169
358 358 356 351 349 346 340 337 333 331 324 319 310 195 194 196 194 185 189 188 187 186 192 198 191 196 198 191 190 203 168 154
357 358 356 351 348 342 341 340 337 326 329 317 298 289 208 187 194 195 194 203 187 188 193 195 196 201 196 194 188 188 187 174